Flag for Canada Weather past 2 weeks in Norfolk, Ontario, Canada

Now
23 °F

Cold.


Feels Like: 15 °F
Forecast: N/A
Wind: 6 mph from Southwest

Location: Delhi CS

Current Time: Jan 31, 2015 at 6:03:13 PM

Latest Report: Jan 31, 2015 at 5:00 PM


Visibility: N/A

Pressure: 30.21 "Hg

Humidity: 88%

Dew point: 20 °F

Location of NorfolkLocation

Historic Weather in Norfolk — Graph

°F

Norfolk temperature yesterday

Maximum temperature yesterday: 31 °F (at 12:00 AM)
Minimum temperature yesterday: 8 °F (at 8:00 PM)
Average temperature yesterday: 16 °F

Past Weeks' High & Low Weather Summary

 TemperatureHumidityPressure
High44 °F (Jan 18, 12:00 AM)100% (Jan 18, 8:00 AM)30.41 "Hg (Jan 18, 8:00 AM)
Low0 °F (Jan 16, 9:00 PM)28% (Jan 28, 4:00 PM)29.49 "Hg (Jan 24, 3:00 PM)
Average22 °F80%30.03 "Hg
* Reported Jan 16 4:00 PM — Jan 31 4:00 PM, Norfolk, Weather by CustomWeather, © 2014

Note: Actual official high and low records may vary slightly from our data, if they occured in-between our weather recording intervals... More about our weather records

Advertising

Norfolk weather history for previous 24 hours

 ConditionsComfort  
Time TempWeatherWind HumidityBarometerVisibility
4:00 PM
Jan 31
22 °FCold.7 mph83%30.20 "HgN/A
3:00 PM22 °FCold.8 mph78%30.22 "HgN/A
2:00 PM22 °FCold.7 mph80%30.22 "HgN/A
1:00 PM22 °FCold.7 mph82%30.24 "HgN/A
12:00 PM20 °FCold.7 mph80%30.28 "HgN/A
11:00 AM18 °FCold.6 mph82%30.31 "HgN/A
10:00 AM17 °FCold.5 mph81%30.32 "HgN/A
9:00 AM14 °FCold.2 mph90%30.32 "HgN/A
8:00 AM11 °FCold.2 mph75%30.33 "HgN/A
7:00 AM10 °FCold.2 mph79%30.34 "HgN/A
6:00 AM9 °FFrigid.1 mph78%30.34 "HgN/A
5:00 AM11 °FCold.2 mph71%30.34 "HgN/A
4:00 AM9 °FFrigid.2 mph77%30.35 "HgN/A
3:00 AM10 °FFrigid.3 mph76%30.37 "HgN/A
2:00 AM11 °FCold.3 mph76%30.38 "HgN/A
1:00 AM12 °FCold.3 mph82%30.39 "HgN/A
12:00 AM12 °FCold.3 mph85%30.39 "HgN/A
11:00 PM
Jan 30
12 °FCold.2 mph83%30.40 "HgN/A
10:00 PM11 °FCold.3 mph80%30.41 "HgN/A
9:00 PM10 °FFrigid.6 mph77%30.41 "HgN/A
8:00 PM8 °FFrigid.3 mph79%30.40 "HgN/A
7:00 PM9 °FFrigid.3 mph79%30.40 "HgN/A
6:00 PM9 °FFrigid.6 mph72%30.39 "HgN/A
Weather by CustomWeather, © 2014

See weather overviewHow to use our weather pages